Weather History for KRDU - January, 2014

Change the Weather History Date:

Tuesday, January 14, 2014

  Actual Average Record
Temperature  
Mean Temperature 46 °F 41 °F  
Max Temperature 54 °F 51 °F 79 °F (1932)
Min Temperature 38 °F 31 °F 6 °F (1912)
Degree Days  
Heating Degree Days 19 24  
Month to date heating degree days 348 342  
Since 1 July heating degree days 1580 1593  
Cooling Degree Days 0 0  
Month to date cooling degree days 0 0  
Year to date cooling degree days 0 0  
Moisture  
Dew Point 45 °F    
Average Humidity 78    
Maximum Humidity 96    
Minimum Humidity 59    
Precipitation  
Precipitation 0.30 in 0.12 in 1.55 in (2005)
Month to date precipitation 1.61 1.58  
Year to date precipitation 1.61 1.58  
Snow  
Snow 0.00 in 0.10 in 5.00 in (1982)
Month to date snowfall 0.0 1.1  
Since 1 July snowfall T 1.8  
Snow Depth 0.00 in    
Sea Level Pressure  
Sea Level Pressure 29.87 in    
Wind  
Wind Speed 3 mph (SW)    
Max Wind Speed 12 mph    
Max Gust Speed 16 mph    
Visibility 7 miles    
Events Fog , Rain    
T = Trace of Precipitation, MM = Missing Value Source: NWS Daily Summary

Daily Weather History Graph

Daily Weather History Graph

Search for Another Location

Airport or City:

Trip Planner

Search our weather history database for the weather conditions in past years. The results will help you decide how hot, cold, wet, or windy it might be!

Date:

Astronomy

Jan. 14, 2014 Rise Set
Actual Time 7:25 AM EST 5:23 PM EST
Civil Twilight 6:57 AM EST 5:51 PM EST
Nautical Twilight 6:25 AM EST 6:23 PM EST
Astronomical Twilight 5:54 AM EST 6:53 PM EST
Moon 4:26 PM EST (1/14) 5:59 AM EST (1/14)
Length of Visible Light 10h 54m
Length of Day
9h 58m
Waxing Gibbous, 98% of the Moon is Illuminated
Jan 14
Waxing Gibbous
Jan 15
Full
Jan 24
Last Quarter
Jan 30
New
Feb 6
First Quarter

Hourly Weather History & Observations

Time (EST) Temp. Windchill Dew Point Humidity Pressure Visibility Wind Dir Wind Speed Gust Speed Precip Events Conditions
12:51 AM 53.1 °F - 43.0 °F 69% 29.93 in 10.0 mi SSW 8.1 mph - 0.00 in Rain Light Rain
1:51 AM 51.1 °F - 46.9 °F 86% 29.90 in 10.0 mi South 9.2 mph - 0.04 in Rain Light Rain
2:51 AM 51.1 °F - 48.0 °F 89% 29.89 in 10.0 mi SSW 6.9 mph - 0.05 in Rain Light Rain
3:51 AM 50.0 °F - 48.0 °F 93% 29.87 in 10.0 mi SW 3.5 mph - 0.00 in Rain Light Rain
4:51 AM 50.0 °F - 48.0 °F 93% 29.86 in 10.0 mi WSW 3.5 mph - 0.00 in Rain Light Rain
5:51 AM 50.0 °F - 48.0 °F 93% 29.83 in 10.0 mi Calm Calm - 0.00 in Rain Light Rain
6:51 AM 50.0 °F - 48.0 °F 93% 29.81 in 5.0 mi Calm Calm - 0.00 in Rain Light Rain
7:51 AM 50.0 °F - 48.9 °F 96% 29.82 in 2.5 mi Calm Calm - 0.00 in Rain Light Rain
8:51 AM 50.0 °F - 48.9 °F 96% 29.82 in 2.5 mi SSW 3.5 mph - 0.00 in Rain Light Rain
9:30 AM 51.8 °F - 48.2 °F 88% 29.82 in 3.0 mi SSW 4.6 mph - 0.00 in   Overcast
9:51 AM 51.1 °F - 48.9 °F 92% 29.81 in 3.0 mi South 3.5 mph - 0.00 in   Overcast
10:28 AM 51.8 °F - 48.2 °F 88% 29.81 in 1.5 mi West 3.5 mph - 0.00 in Rain Light Rain
10:51 AM 51.1 °F - 48.9 °F 92% 29.80 in 0.5 mi Calm Calm - 0.02 in Rain Light Rain
11:47 AM 48.2 °F - 46.4 °F 93% 29.80 in 1.5 mi WNW 8.1 mph - 0.07 in Rain Light Rain
11:51 AM 50.0 °F - 48.0 °F 93% 29.80 in 1.5 mi Variable 4.6 mph - 0.08 in Rain Light Rain
12:51 PM 50.0 °F - 46.9 °F 89% 29.81 in 1.5 mi West 6.9 mph - 0.07 in Rain Light Rain
12:56 PM 50.0 °F - 46.4 °F 87% 29.82 in 3.0 mi NW 8.1 mph - 0.00 in Rain Light Rain
1:27 PM 50.0 °F - 48.2 °F 94% 29.80 in 4.0 mi WNW 5.8 mph - 0.03 in Rain Light Rain
1:51 PM 50.0 °F - 46.9 °F 89% 29.81 in 9.0 mi SW 3.5 mph - 0.03 in Rain Light Rain
2:51 PM 53.1 °F - 46.9 °F 80% 29.82 in 10.0 mi WNW 5.8 mph - 0.01 in   Scattered Clouds
3:51 PM 53.1 °F - 45.0 °F 74% 29.86 in 10.0 mi Variable 4.6 mph - N/A   Scattered Clouds
4:51 PM 52.0 °F - 44.1 °F 74% 29.89 in 10.0 mi Calm Calm - N/A   Partly Cloudy
5:51 PM 48.0 °F - 44.1 °F 86% 29.91 in 10.0 mi Calm Calm - N/A   Partly Cloudy
6:51 PM 46.0 °F 43.9 °F 43.0 °F 89% 29.93 in 10.0 mi South 4.6 mph - N/A   Clear
7:51 PM 43.0 °F 41.3 °F 41.0 °F 93% 29.94 in 10.0 mi South 3.5 mph - N/A Fog Patches of Fog
8:51 PM 42.1 °F - 39.9 °F 92% 29.96 in 10.0 mi Calm Calm - N/A Fog Patches of Fog
9:51 PM 41.0 °F - 37.9 °F 89% 29.98 in 8.0 mi Calm Calm - N/A Fog Patches of Fog
10:51 PM 39.9 °F - 37.9 °F 93% 29.97 in 10.0 mi Calm Calm - N/A Fog Patches of Fog
11:33 PM 39.2 °F - 37.4 °F 93% 29.97 in 10.0 mi Calm Calm - N/A Fog Patches of Fog
11:51 PM 37.9 °F - 36.0 °F 93% 29.97 in 10.0 mi Calm Calm - N/A Fog Patches of Fog